Home   Weather   Zwettl   Past weeks

Flag for Austria Past Weather in Zwettl, Lower Austria, Austria — Yesterday and Last 2 Weeks

Now
42 °F

Quite cool.


Feels Like: 42 °F
Forecast: 36 / 46 °F
Wind: No wind

Location: Retz

Current Time: Apr 25, 2017 at 5:02:34 am

Latest Report: Apr 25, 2017 at 4:00 am


Visibility: N/A

Pressure: 29.82 "Hg (27.97 "Hg at 524m altitude)

Humidity: 77%

Dew Point: 35 °F

Location of ZwettlLocation

Past Weather in Zwettl — Graph

°F

Zwettl Temperature Yesterday

Maximum temperature yesterday: 58 °F (at 6:00 pm)
Minimum temperature yesterday: 38 °F (at 1:00 am)
Average temperature yesterday: 47 °F

High & Low Weather Summary for the Past Weeks

 TemperatureHumidityPressure
High71 °F (Apr 10, 5:00 pm)97% (Apr 17, 9:00 pm)30.51 "Hg (Apr 17, 9:00 pm)
Low34 °F (Apr 20, 6:00 am)37% (Apr 24, 6:00 pm)29.79 "Hg (Apr 13, 7:00 am)
Average46 °F65%30.08 "Hg
* Reported Apr 10 3:00 am — Apr 25 3:00 am, Zwettl, Weather by CustomWeather, © 2017

Note: Actual official high and low records may vary slightly from our data, if they occured in-between our weather recording intervals... More about our weather records

Advertising

Zwettl Weather History for the Previous 24 Hours

Scroll right to see more
 ConditionsComfort  
Time TempWeatherWind HumidityBarometerVisibility
3:00 am
Tue, Apr 25
45 °FCool.1 mph68%29.83 "HgN/A
2:00 am46 °FCool.1 mph68%29.84 "HgN/A
1:00 am48 °FCool.2 mph64%29.86 "HgN/A
12:00 am49 °FCool.2 mph62%29.87 "HgN/A
11:00 pm
Mon, Apr 24
50 °FCool.3 mph60%29.88 "HgN/A
10:00 pm51 °FCool.2 mph58%29.90 "HgN/A
9:00 pm52 °FCool.3 mph55%29.91 "HgN/A
8:00 pm53 °FPassing clouds.2 mph53%29.92 "Hg14 mi
7:00 pm56 °FRefreshingly cool.3 mph46%29.92 "HgN/A
6:00 pm58 °FRefreshingly cool.3 mph37%29.94 "HgN/A
5:00 pm57 °FRefreshingly cool.3 mph39%29.96 "HgN/A
4:00 pm56 °FRefreshingly cool.5 mph38%29.99 "HgN/A
3:00 pm55 °FRefreshingly cool.3 mph41%30.02 "HgN/A
1:00 pm51 °FCool.2 mph43%30.08 "HgN/A
12:00 pm49 °FCool.3 mph48%30.12 "HgN/A
11:00 am49 °FCool.3 mph50%30.14 "HgN/A
10:00 am47 °FCool.2 mph53%30.15 "HgN/A
9:00 am45 °FQuite cool.1 mph56%30.18 "HgN/A
8:00 am42 °FPassing clouds.1 mph61%30.19 "Hg16 mi
7:00 am39 °FPassing clouds.6 mph63%30.19 "Hg12 mi
6:00 am39 °FChilly.7 mph63%30.18 "HgN/A
5:00 am39 °FChilly.7 mph62%30.19 "HgN/A
Weather by CustomWeather, © 2017

See weather overviewHow to use our weather pages